Location: Fasanenhof
(48.7107°N, 9.1590°E)
Time: 02:32:00
(UTC+00:00)

ISS - Pass Details

Date: 25 February 2019
Orbit: 406 x 411 km, 51.6° (Epoch: 19 March)

Event Time Altitude Azimuth Distance (km) Brightness Sun altitude
Exits shadow 05:22:25 - 221° (SW) 2,089 -0.6 -9.2°
Reaches altitude 10° 05:24:01 10° 214° (SW) 1,460 -1.3 -8.9°
Maximum altitude 05:27:03 35° 147° (SSE) 672 -2.3 -8.4°
Drops below altitude 10° 05:30:05 10° 79° (E) 1,469 0.5 -7.9°
Sets 05:32:16 0° 70° (ENE) 2,334 1.4 -7.6°
